Location: Nairn
(57.5833°N, 3.8667°W)
Time: 11:23:06
(UTC+00:00)

Vanguard 1 - Pass Details

Date: 01 December 2020
Orbit: 648 x 3834 km, 34.3° (Epoch: 17 January)

Event Time Altitude Azimuth Distance (km) Brightness Sun altitude
Rises 06:57:51 0° 228° (SW) 3,829 12.8 -11.5°
Reaches altitude 10° 07:01:27 10° 207° (SSW) 3,285 12.7 -11.1°
Maximum altitude 07:06:08 16° 172° (S) 3,384 13.2 -10.5°
Drops below altitude 10° 07:12:20 10° 140° (SE) 4,579 14.6 -9.8°
Sets 07:19:04 0° 124° (ESE) 6,313 16.5 -9.0°
